Location: Newark
(50.4348°N, 30.5552°E)
Time: 12:58:58
(UTC+00:00)

Envisat - Pass Details

Date: 13 December 2019
Orbit: 764 x 766 km, 98.1° (Epoch: 18 January)

Event Time Altitude Azimuth Distance (km) Brightness Sun altitude
Rises 15:45:17 0° 166° (SSE) 3,222 6.3 -16.6°
Reaches altitude 10° 15:47:35 10° 167° (SSE) 2,300 5.5 -17.0°
Maximum altitude 15:52:40 83° 254° (WSW) 779 3.0 -17.8°
Drops below altitude 10° 15:57:47 10° 345° (NNW) 2,316 5.5 -18.6°
Sets 16:00:06 0° 346° (NNW) 3,247 6.3 -18.9°
